Jackpot

Texas Poker Multi Jackpot System

Kini Telah hadir Jackpot SUPER ROYAL FLUSH

Kini Telah hadir Jackpot 2000 (khusus table VIP keatas).

Ikutilah global jackpot yang tersedia di system kami, dengan system jackpot terbaru dan pertama di indonesia, anda dapat membeli jackpot dengan harga 100 rupiah saja dan menangkan hadiahnya hingga puluhan juta rupiah.

Jackpot bukanlah suatu keharusan untuk dibeli, namun kami memberikan suatu fitur tambahan untuk member tercinta dari www.h3npoker.net.

Terdapat tiga pilihan harga jackpot yang bisa anda beli yaitu :100,500,1000 dan 2000(khusus table VIP Keatas) rupiah.

Hadiah dari Multi jackpot system www.h3npoker.net

  1. full house x 10 harga jackpot yang anda beli.
      (contoh:anda membeli 1000 maka:1000 X10 = 10.000)
  2. four of kind x 250 harga jackpot yang anda beli
      (contoh:anda membeli 1000 maka:1000 X250 = 250.000)
  3. Straight flush x 1200
      (contoh:anda membeli 1000 maka:1000 X1200 = 1.200.000)
  4. Royal flush x 10000 harga jackpot yang anda beli
      (contoh:anda membeli 1000 maka:1000 X10000 = 10.000.000)
  5. SUPER ROYAL FLUSH x 30000 harga jackpot yang anda beli
      (contoh:anda membeli 1000 maka:1000 X30000 = 30.000.000)

Kondisi kartu

  1. full house adalah kondisi kartu dimana kartu anda dan kartu tengah dengan total 7 kartu bisa mendapatkan nilai 5 kartu dengan kombinasi 1 tris(three of kind) dan 1 pair, contoh 3 kartu 10 dan 2 kartu 5
  2. Four of kind adalah kondisi kartu dimana kartu anda dan kartu tengah dengan total 7 kartu bisa mendapatkan nilai 5 kartu dengan kombinasi 4 kartu yang sama jumlah dan 1 kartu apapun juga contoh anda mendapatkan 4 buah kartu angka 3 dan 1 kartu apapun.
  3. Staright flush adalah kondisi kartu dimana kartu anda dan kartu tengah dengan total 7 kartu bisa mendapatkan nilai 5 kartu dengan kombinasi seri / staright dengan kembang yang sama contoh : urutan kartu dari angka 5, 6, 7, 8 , 9 10 dengan kembang yg sama misalnya as hati
  4. Royal flush adalah kondisi kartu dimana kartu anda dan kartu tengah dengan total 7 kartu bisa mendapatkan nilai 5 kartu dengan kombinasi seri / staright dengan kembang yang sama tetapi kartu tersebut haruslah dimulai dari 10. contoh 10, Queen, Jack, King dan aces dengan kembang yang sama
  5. Super Royal flush adalah kondisi kartu dimana Kedua kartu anda digabung dengan 3 kartu pertama meja haruslah royal flush. contoh kartu anda 10,Queen kembang sama dan 3 kartu pertama meja adalah Jack, King dan aces dengan kembang yang sama

Demikian adalah penjelasan dari Multi Jackpot www.h3npoker.net terima kasih dan selamat bermain salam hoki dari kami

Texas Poker Jackpot Winner

TOP SUPER ROYAL FLUSH
No.TanggalNamaPriceWin
116/12 02:11OREL4486Super Royal flush15,000,000
216/12 01:28BAASELAHSuper Royal flush15,000,000
315/12 23:51T1URSuper Royal flush15,000,000
415/12 22:19TARONCOPSuper Royal flush30,000,000
515/12 22:06ANES122Super Royal flush15,000,000
TOP ROYAL FLUSH
No.TanggalNamaPriceWin
116/12 06:08IRAONE84Royal flush10,000,000
216/12 05:56CHABOEL66Royal flush5,000,000
316/12 05:47JANDRAI99Royal flush2,000,000
416/12 05:32MERANSIRoyal flush1,000,000
516/12 04:42LINUS007Royal flush1,000,000
TOP STRAIGHT FLUSH
No.TanggalNamaPriceWin
116/12 06:24KURMA997Straight Flush120,000
216/12 06:19PEP113Straight Flush240,000
316/12 06:12DOMA123Straight Flush600,000
416/12 06:09KOLOR2121Straight Flush1,200,000
516/12 06:08F5100FD2Straight Flush240,000
LATEST JACKPOT
No.TanggalNamaPriceWin
116/12 06:24HARLIS63Full House1,000
216/12 06:24HYVER_99Full House5,000
316/12 06:24TASTAS99Full House5,000
416/12 06:24YFHUGHFull House500
516/12 06:24GOGO_8899Full House2,000
616/12 06:24BONJOVI168Full House10,000
716/12 06:24NOKBO192Full House5,000
816/12 06:24ENJUS2Full House1,000
916/12 06:24ARFAN06Full House2,000
1016/12 06:24GJ4567Full House10,000
1116/12 06:24KURMA997Straight Flush120,000
1216/12 06:24RICHELIMDFull House2,000
1316/12 06:24BORISKPFull House500
1416/12 06:24HARUNYAAKUFull House20,000
1516/12 06:24MASIGA20Full House1,000
1616/12 06:24SAMIHOREFull House2,000
1716/12 06:24RIZKIBAS9Full House5,000
1816/12 06:24KAMANDAKAAFull House1,000
1916/12 06:24HAYBOO99Full House2,000
2016/12 06:24RIANF07Full House5,000
2116/12 06:24POKR12SKOPFull House1,000
2216/12 06:24IZHARNDEFull House10,000
2316/12 06:24CIMENGQQFull House2,000
2416/12 06:23KURMA997Full House1,000
2516/12 06:23MEYDITA3Full House2,000
2616/12 06:23DINENG81Four Of A Kind25,000
2716/12 06:23KIET555Full House10,000
2816/12 06:23CYBER8939Full House500
2916/12 06:23BORATZFull House20,000
3016/12 06:23KK0NTOLFull House20,000
3116/12 06:23DAREH999Full House2,000
3216/12 06:23ABLEHTHEAFull House5,000
3316/12 06:23OVAL45Full House2,000
3416/12 06:23WONGDESO67Full House2,000
3516/12 06:23SLND13MDFEFull House500
3616/12 06:23BANCAI2105Full House1,000
3716/12 06:23C66CD6BCFull House2,000
3816/12 06:23BOOL_BAUFull House2,000
3916/12 06:23HCQHSSCW00Full House1,000
4016/12 06:23BHAWEELLFull House1,000
4116/12 06:23T0C0Full House5,000
4216/12 06:23ATUA999Full House2,000
4316/12 06:23AYAMTEMPURFull House2,000
4416/12 06:23GUEBNGETFull House5,000
4516/12 06:23KFC17Four Of A Kind125,000
4616/12 06:23SHIO345Full House20,000
4716/12 06:23Q231181Full House1,000
4816/12 06:23KAOSS99Full House1,000
4916/12 06:23PACIRITBROFull House2,000
5016/12 06:23ANGUN11Full House2,000

Domino Multi Jackpot System

Ikutilah global jackpot yang tersedia di system kami, dengan system jackpot terbaru dan pertama di indonesia, anda dapat membeli jackpot dengan harga 100 rupiah saja dan menangkan hadiahnya hingga puluhan juta rupiah.

Jackpot bukanlah suatu keharusan untuk dibeli, namun kami memberikan suatu fitur tambahan untuk member tercinta dari www.h3npoker.net.

Terdapat tiga pilihan harga jackpot yang bisa anda beli yaitu :100,500 dan 1000 rupiah.

Hadiah dari Multi jackpot system www.h3npoker.net

  1. Murni Kecil x 50 harga jackpot yang anda beli.
      (contoh:anda membeli 1000 maka:1000 X 50 = 50.000)
  2. Murni Besar x 50 harga jackpot yang anda beli
      (contoh:anda membeli 1000 maka:1000 X 50 = 50.000)
  3. BALAK x 100 harga jackpot yang anda beli
      (contoh:anda membeli 1000 maka:1000 X 100 = 100.000)
  4. ENAM DEWA x 6666 harga jackpot yang anda beli
      (contoh:anda membeli 1000 maka:1000 X 6666 = 6.666.000)

Demikian adalah penjelasan dari Multi Jackpot www.h3npoker.net terima kasih dan selamat bermain salam hoki dari kami

Domino Jackpot Winner

TOP ENAM DEWA
No.TanggalNamaPriceWin
116/12 01:21SAMPIT01murni enam6,666,000
215/12 23:36QWINBR0murni enam6,666,000
315/12 22:38MURA1991murni enam6,666,000
415/12 22:17HIHIHII22murni enam3,333,000
515/12 21:33HOKEY9191murni enam6,666,000
TOP BALAK
No.TanggalNamaPriceWin
116/12 06:22ONDIXbalak100,000
216/12 06:22SAMBILI10balak50,000
316/12 06:20MOI_BONGbalak10,000
416/12 06:03KELU88balak100,000
516/12 06:03ARDHIA89balak10,000
LATEST JACKPOT
No.TanggalNamaPriceWin
116/12 06:24ABAHALFARmurni besar5,000
216/12 06:24BOSMOTORmurni kecil50,000
316/12 06:23AIBONK111murni kecil25,000
416/12 06:23DEWIDEWI88murni kecil5,000
516/12 06:22ONDIXbalak100,000
616/12 06:22SAMBILI10balak50,000
716/12 06:22MBLEGEDSmurni besar50,000
816/12 06:20BYWTW10murni kecil25,000
916/12 06:20ANDRI69OKmurni besar50,000
1016/12 06:20MOI_BONGbalak10,000
1116/12 06:19OYONK69murni besar50,000
1216/12 06:19Z4W1Rmurni besar50,000
1316/12 06:18BOIM76murni besar50,000
1416/12 06:17C1TCICUITmurni kecil25,000
1516/12 06:16UMAK999murni besar5,000
1616/12 06:15EFICK11murni besar25,000
1716/12 06:15PL1XQ2UWX3murni besar50,000
1816/12 06:14BANGTONGAlucky9925,000
1916/12 06:10HOMBING5murni besar25,000
2016/12 06:09REMBON86murni besar25,000
2116/12 06:08AZUHRAmurni besar25,000
2216/12 06:05FA_JAR_99murni kecil25,000
2316/12 06:04DOLICPmurni besar25,000
2416/12 06:04QWERTY23murni kecil25,000
2516/12 06:03KELU88balak100,000
2616/12 06:03LEALEOmurni kecil50,000
2716/12 06:03ARDHIA89balak10,000
2816/12 06:02FBYDJmurni besar50,000
2916/12 06:02ABETSCmurni kecil5,000
3016/12 06:00MYLOVEOKmurni besar50,000
3116/12 06:00DM168238murni besar50,000
3216/12 06:00CADONEmurni kecil50,000
3316/12 05:58DDI1LC3OVYmurni kecil5,000
3416/12 05:58EXORT007lucky9925,000
3516/12 05:57ETJDAYmurni besar50,000
3616/12 05:56ETJDAYbalak100,000
3716/12 05:56KAPI007murni kecil50,000
3816/12 05:56REMBON86balak50,000
3916/12 05:55SAMBILI10balak50,000
4016/12 05:53ANAKHARAM8murni besar5,000
4116/12 05:52OMBAK022murni besar25,000
4216/12 05:52JARUM1993lucky9950,000
4316/12 05:52J3P0Kmurni besar50,000
4416/12 05:51QNOY2525murni besar25,000
4516/12 05:51SAHDILAH99balak10,000
4616/12 05:50SAHDILAH99balak10,000
4716/12 05:49WINCE12murni kecil50,000
4816/12 05:49ASRN99murni besar5,000
4916/12 05:49TOK0201murni besar25,000
5016/12 05:49DDI1LC3OVYmurni kecil5,000

Ceme Multi Jackpot System

Jackpot dilihat dari gabungan kartu pemain dengan kartu bandar. Bandar harus membeli jackpot sebanyak jumlah player yang sedang duduk. Sebagai contoh bila terdapat 3 pemain duduk bermain, dan bandar memutuskan untuk membeli jackpot Rp 1.000, maka pada periode tersebut bandar akan membeli jackpot sebanyak 3xRp1.000 = Rp3.000.

Jackpot bukanlah suatu keharusan untuk dibeli, namun kami memberikan suatu fitur tambahan untuk member tercinta dari www.h3npoker.net.

Terdapat tiga pilihan harga jackpot yang bisa anda beli yaitu :100,500 dan 1000 rupiah.

Hadiah dari Multi jackpot system www.h3npoker.net

  1. Murni Kecil x 50 harga jackpot yang anda beli.
      (contoh:anda membeli 1000 maka:1000 X 50 = 50.000)
  2. Murni Besar x 50 harga jackpot yang anda beli
      (contoh:anda membeli 1000 maka:1000 X 50 = 50.000)
  3. BALAK x 200 harga jackpot yang anda beli
      (contoh:anda membeli 1000 maka:1000 X 200 = 200.000)
  4. ENAM DEWA x 6666 harga jackpot yang anda beli
      (contoh:anda membeli 1000 maka:1000 X 6666 = 6.666.000)

Demikian adalah penjelasan dari Multi Jackpot www.h3npoker.net terima kasih dan selamat bermain salam hoki dari kami

Ceme Jackpot Winner

TOP ENAM DEWA
No.TanggalNamaPriceWin
116/12 06:24MINAH_AJAmurni enam3,333,000
216/12 06:24B31C590Emurni enam666,600
316/12 05:52GPENG00murni enam666,600
416/12 05:49CANCUT111murni enam666,600
516/12 05:43PT4DYOYON455murni enam6,666,000
TOP BALAK
No.TanggalNamaPriceWin
116/12 06:23WPCNGI85UObalak100,000
216/12 06:22AZDEWA402balak200,000
316/12 06:22WAREKEK1balak100,000
416/12 06:22AZDEWA402balak200,000
516/12 06:22MAN99ARAPbalak20,000
LATEST JACKPOT
No.TanggalNamaPriceWin
116/12 06:24THAIPROmurni kecil50,000
216/12 06:24MINAH_AJAmurni enam3,333,000
316/12 06:24B31C590Emurni enam666,600
416/12 06:24BOBOOOY06murni besar50,000
516/12 06:23JL2016murni kecil5,000
616/12 06:23PAERAN22murni besar50,000
716/12 06:23WPCNGI85UObalak100,000
816/12 06:23DERO1234murni besar50,000
916/12 06:22B3RITmurni kecil25,000
1016/12 06:22OMADIK87murni kecil25,000
1116/12 06:22MO_MON200murni kecil5,000
1216/12 06:22MV81567murni kecil50,000
1316/12 06:22JOMAN01murni kecil50,000
1416/12 06:22AZDEWA402balak200,000
1516/12 06:22WAREKEK1balak100,000
1616/12 06:22AZDEWA402balak200,000
1716/12 06:22MAN99ARAPbalak20,000
1816/12 06:214SR116balak100,000
1916/12 06:21QHXPKFMKZZbalak200,000
2016/12 06:21AZIS96murni kecil50,000
2116/12 06:21DERO1234murni kecil50,000
2216/12 06:21MINAH_AJAmurni besar25,000
2316/12 06:21SOFFY810murni besar25,000
2416/12 06:21FEBREEmurni kecil5,000
2516/12 06:21BVCX66murni kecil50,000
2616/12 06:21IDORISmurni kecil50,000
2716/12 06:20ARGEN24murni besar50,000
2816/12 06:20ABENKPROmurni kecil5,000
2916/12 06:20UOKWZ27XG0murni besar50,000
3016/12 06:20BAHTIAR10murni besar5,000
3116/12 06:20KUSUMA0301murni kecil50,000
3216/12 06:20T4DKIANO21murni kecil50,000
3316/12 06:20ABRI1234murni kecil50,000
3416/12 06:20BERDHANJSbalak100,000
3516/12 06:20MAFIOSO878murni kecil25,000
3616/12 06:20PAUL7Cmurni kecil50,000
3716/12 06:20D3W4LIONERmurni kecil50,000
3816/12 06:19SASA5252murni besar50,000
3916/12 06:19RATIH333murni besar5,000
4016/12 06:19PAUL7Cbalak200,000
4116/12 06:19D3W4LIONERbalak100,000
4216/12 06:19BOBOOOY06balak200,000
4316/12 06:18REGAL077murni besar50,000
4416/12 06:18DWBTWI98murni besar50,000
4516/12 06:18THEKING17balak20,000
4616/12 06:17SKYN3T83murni besar50,000
4716/12 06:17LK4DRAGAHPATENmurni kecil25,000
4816/12 06:17R1ZKY1996murni kecil25,000
4916/12 06:17JALUKO86murni besar5,000
5016/12 06:17KUGABbalak100,000